Year,Month,Day,Hour,Minute,Value (Times are PST for temperature in C)
2018,05,17,00,00,10.90
2018,05,17,00,01,10.80
2018,05,17,00,02,10.80
2018,05,17,00,03,10.80
2018,05,17,00,04,10.80
2018,05,17,00,05,10.80
2018,05,17,00,06,10.80
2018,05,17,00,07,10.80
2018,05,17,00,08,10.80
2018,05,17,00,09,10.80
2018,05,17,00,10,10.80
2018,05,17,00,11,10.80
2018,05,17,00,12,10.80
2018,05,17,00,13,10.80
2018,05,17,00,14,10.80
2018,05,17,00,15,10.70
2018,05,17,00,16,10.80
2018,05,17,00,17,10.70
2018,05,17,00,18,10.70
2018,05,17,00,19,10.70
2018,05,17,00,20,10.70
2018,05,17,00,21,10.70
2018,05,17,00,22,10.70
2018,05,17,00,23,10.70
2018,05,17,00,24,10.70
2018,05,17,00,25,10.70
2018,05,17,00,26,10.70
2018,05,17,00,27,10.70
2018,05,17,00,28,10.70
2018,05,17,00,29,10.70
2018,05,17,00,30,10.70
2018,05,17,00,31,10.70
2018,05,17,00,32,10.70
2018,05,17,00,33,10.70
2018,05,17,00,34,10.70
2018,05,17,00,35,10.70
2018,05,17,00,36,10.70
2018,05,17,00,37,10.80
2018,05,17,00,38,10.80
2018,05,17,00,39,10.80
2018,05,17,00,40,10.80
2018,05,17,00,41,10.80
2018,05,17,00,42,10.80
2018,05,17,00,43,10.80
2018,05,17,00,44,10.80
2018,05,17,00,45,10.80
2018,05,17,00,46,10.80
2018,05,17,00,47,10.80
2018,05,17,00,48,10.80
2018,05,17,00,49,10.80
2018,05,17,00,50,10.80
2018,05,17,00,51,10.80
2018,05,17,00,52,10.80
2018,05,17,00,53,10.90
2018,05,17,00,54,10.90
2018,05,17,00,55,10.90
2018,05,17,00,56,10.90
2018,05,17,00,57,10.90
2018,05,17,00,58,10.90
2018,05,17,00,59,10.90
2018,05,17,01,00,10.90
2018,05,17,01,01,10.90
2018,05,17,01,02,10.90
2018,05,17,01,03,11.00
2018,05,17,01,04,11.00
2018,05,17,01,05,11.00
2018,05,17,01,06,11.00
2018,05,17,01,07,11.00
2018,05,17,01,08,10.90
2018,05,17,01,09,10.90
2018,05,17,01,10,10.90
2018,05,17,01,11,10.90
2018,05,17,01,12,10.90
2018,05,17,01,13,10.90
2018,05,17,01,14,10.90
2018,05,17,01,15,10.90
2018,05,17,01,16,10.90
2018,05,17,01,17,10.90
2018,05,17,01,18,10.90
2018,05,17,01,19,10.90
2018,05,17,01,20,10.90
2018,05,17,01,21,10.80
2018,05,17,01,22,10.80
2018,05,17,01,23,10.80
2018,05,17,01,24,10.80
2018,05,17,01,25,10.80
2018,05,17,01,26,10.80
2018,05,17,01,27,10.80
2018,05,17,01,28,10.80
2018,05,17,01,29,10.80
2018,05,17,01,30,10.80
2018,05,17,01,31,10.80
2018,05,17,01,32,10.80
2018,05,17,01,33,10.80
2018,05,17,01,34,10.80
2018,05,17,01,35,10.80
2018,05,17,01,36,10.70
2018,05,17,01,37,10.70
2018,05,17,01,38,10.70
2018,05,17,01,39,10.70
2018,05,17,01,40,10.70
2018,05,17,01,41,10.70
2018,05,17,01,42,10.70
2018,05,17,01,43,10.70
2018,05,17,01,44,10.70
2018,05,17,01,45,10.70
2018,05,17,01,46,10.70
2018,05,17,01,47,10.60
2018,05,17,01,48,10.60
2018,05,17,01,49,10.60
2018,05,17,01,50,10.60
2018,05,17,01,51,10.60
2018,05,17,01,52,10.60
2018,05,17,01,53,10.60
2018,05,17,01,54,10.60
2018,05,17,01,55,10.60
2018,05,17,01,56,10.60
2018,05,17,01,57,10.50
2018,05,17,01,58,10.50
2018,05,17,01,59,10.50
2018,05,17,02,00,10.50
2018,05,17,02,01,10.50
2018,05,17,02,02,10.50
2018,05,17,02,03,10.50
2018,05,17,02,04,10.50
2018,05,17,02,05,10.50
2018,05,17,02,06,10.50
2018,05,17,02,07,10.50
2018,05,17,02,08,10.40
2018,05,17,02,09,10.40
2018,05,17,02,10,10.40
2018,05,17,02,11,10.40
2018,05,17,02,12,10.40
2018,05,17,02,13,10.30
2018,05,17,02,14,10.30
2018,05,17,02,15,10.30
2018,05,17,02,16,10.30
2018,05,17,02,17,10.20
2018,05,17,02,18,10.20
2018,05,17,02,19,10.20
2018,05,17,02,20,10.20
2018,05,17,02,21,10.20
2018,05,17,02,22,10.20
2018,05,17,02,23,10.20
2018,05,17,02,24,10.20
2018,05,17,02,25,10.20
2018,05,17,02,26,10.20
2018,05,17,02,27,10.20
2018,05,17,02,28,10.20
2018,05,17,02,29,10.10
2018,05,17,02,30,10.10
2018,05,17,02,31,10.10
2018,05,17,02,32,10.20
2018,05,17,02,33,10.20
2018,05,17,02,34,10.20
2018,05,17,02,35,10.20
2018,05,17,02,36,10.20
2018,05,17,02,37,10.20
2018,05,17,02,38,10.20
2018,05,17,02,39,10.20
2018,05,17,02,40,10.30
2018,05,17,02,41,10.30
2018,05,17,02,42,10.30
2018,05,17,02,43,10.30
2018,05,17,02,44,10.30
2018,05,17,02,45,10.30
2018,05,17,02,46,10.30
2018,05,17,02,47,10.30
2018,05,17,02,48,10.30
2018,05,17,02,49,10.30
2018,05,17,02,50,10.30
2018,05,17,02,51,10.30
2018,05,17,02,52,10.30
2018,05,17,02,53,10.30
2018,05,17,02,54,10.30
2018,05,17,02,55,10.30
2018,05,17,02,56,10.30
2018,05,17,02,57,10.30
2018,05,17,02,58,10.30
2018,05,17,02,59,10.30
2018,05,17,03,00,10.30
2018,05,17,03,01,10.30
2018,05,17,03,02,10.30
2018,05,17,03,03,10.20
2018,05,17,03,04,10.20
2018,05,17,03,05,10.20
2018,05,17,03,06,10.20
2018,05,17,03,07,10.20
2018,05,17,03,08,10.20
2018,05,17,03,09,10.20
2018,05,17,03,10,10.20
2018,05,17,03,11,10.20
2018,05,17,03,12,10.20
2018,05,17,03,13,10.20
2018,05,17,03,14,10.20
2018,05,17,03,15,10.20
2018,05,17,03,16,10.20
2018,05,17,03,17,10.20
2018,05,17,03,18,10.20
2018,05,17,03,19,10.20
2018,05,17,03,20,10.10
2018,05,17,03,21,10.10
2018,05,17,03,22,10.10
2018,05,17,03,23,10.10
2018,05,17,03,24,10.10
2018,05,17,03,25,10.10
2018,05,17,03,26,10.10
2018,05,17,03,27,10.10
2018,05,17,03,28,10.10
2018,05,17,03,29,10.10
2018,05,17,03,30,10.00
2018,05,17,03,31,10.10
2018,05,17,03,32,10.00
2018,05,17,03,33,10.00
2018,05,17,03,34,10.10
2018,05,17,03,35,10.10
2018,05,17,03,36,10.10
2018,05,17,03,37,10.10
2018,05,17,03,38,10.10
2018,05,17,03,39,10.10
2018,05,17,03,40,10.10
2018,05,17,03,41,10.10
2018,05,17,03,42,10.10
2018,05,17,03,43,10.10
2018,05,17,03,44,10.10
2018,05,17,03,45,10.10
2018,05,17,03,46,10.10
2018,05,17,03,47,10.00
2018,05,17,03,48,10.00
2018,05,17,03,49,10.00
2018,05,17,03,50,10.00
2018,05,17,03,51,10.00
2018,05,17,03,52,10.00
2018,05,17,03,53,10.00
2018,05,17,03,54,10.00
2018,05,17,03,55,10.00
2018,05,17,03,56,10.00
2018,05,17,03,57,9.90
2018,05,17,03,58,9.90
2018,05,17,03,59,9.90
2018,05,17,04,00,9.90
2018,05,17,04,01,10.00
2018,05,17,04,02,10.00
2018,05,17,04,03,10.00
2018,05,17,04,04,10.00
2018,05,17,04,05,10.00
2018,05,17,04,06,10.00
2018,05,17,04,07,10.10
2018,05,17,04,08,10.00
2018,05,17,04,09,10.10
2018,05,17,04,10,10.10
2018,05,17,04,11,10.00
2018,05,17,04,12,10.00
2018,05,17,04,13,10.00
2018,05,17,04,14,10.00
2018,05,17,04,15,10.00
2018,05,17,04,16,10.00
2018,05,17,04,17,10.00
2018,05,17,04,18,10.00
2018,05,17,04,19,10.00
2018,05,17,04,20,9.90
2018,05,17,04,21,9.90
2018,05,17,04,22,9.90
2018,05,17,04,23,9.90
2018,05,17,04,24,9.90
2018,05,17,04,25,9.90
2018,05,17,04,26,9.90
2018,05,17,04,27,10.00
2018,05,17,04,28,10.00
2018,05,17,04,29,10.00
2018,05,17,04,30,9.90
2018,05,17,04,31,9.90
2018,05,17,04,32,9.90
2018,05,17,04,33,9.90
2018,05,17,04,34,9.90
2018,05,17,04,35,9.90
2018,05,17,04,36,9.90
2018,05,17,04,37,9.90
2018,05,17,04,38,9.90
2018,05,17,04,39,9.90
2018,05,17,04,40,9.90
2018,05,17,04,41,9.90
2018,05,17,04,42,9.90
2018,05,17,04,43,9.90
2018,05,17,04,44,9.90
2018,05,17,04,45,9.80
2018,05,17,04,46,9.80
2018,05,17,04,47,9.80
2018,05,17,04,48,9.80
2018,05,17,04,49,9.80
2018,05,17,04,50,9.80
2018,05,17,04,51,9.80
2018,05,17,04,52,9.80
2018,05,17,04,53,9.80
2018,05,17,04,54,9.80
2018,05,17,04,55,9.80
2018,05,17,04,56,9.80
2018,05,17,04,57,9.80
2018,05,17,04,58,9.80
2018,05,17,04,59,9.80
2018,05,17,05,00,9.80
2018,05,17,05,01,9.80
2018,05,17,05,02,9.80
2018,05,17,05,03,9.80
2018,05,17,05,04,9.80
2018,05,17,05,05,9.80
2018,05,17,05,06,9.80
2018,05,17,05,07,9.80
2018,05,17,05,08,9.80
2018,05,17,05,09,9.80
2018,05,17,05,10,9.80
2018,05,17,05,11,9.80
2018,05,17,05,12,9.80
2018,05,17,05,13,9.80
2018,05,17,05,14,9.80
2018,05,17,05,15,9.90
2018,05,17,05,16,9.90
2018,05,17,05,17,9.90
2018,05,17,05,18,9.90
2018,05,17,05,19,9.90
2018,05,17,05,20,9.90
2018,05,17,05,21,9.90
2018,05,17,05,22,9.90
2018,05,17,05,23,9.90
2018,05,17,05,24,9.90
2018,05,17,05,25,9.80
2018,05,17,05,26,9.80
2018,05,17,05,27,9.80
2018,05,17,05,28,9.80
2018,05,17,05,29,9.80
2018,05,17,05,30,9.80
2018,05,17,05,31,9.80
2018,05,17,05,32,9.80
2018,05,17,05,33,9.90
2018,05,17,05,34,9.90
2018,05,17,05,35,9.90
2018,05,17,05,36,9.90
2018,05,17,05,37,9.90
2018,05,17,05,38,9.90
2018,05,17,05,39,9.90
2018,05,17,05,40,9.90
2018,05,17,05,41,10.00
2018,05,17,05,42,10.00
2018,05,17,05,43,10.00
2018,05,17,05,44,10.00
2018,05,17,05,45,10.00
2018,05,17,05,46,9.90
2018,05,17,05,47,9.90
2018,05,17,05,48,9.90
2018,05,17,05,49,9.90
2018,05,17,05,50,9.90
2018,05,17,05,51,9.90
2018,05,17,05,52,9.90
2018,05,17,05,53,9.90
2018,05,17,05,54,9.90
2018,05,17,05,55,9.90
2018,05,17,05,56,9.90
2018,05,17,05,57,9.90
2018,05,17,05,58,10.00
2018,05,17,05,59,10.00
2018,05,17,06,00,10.00
2018,05,17,06,01,10.00
2018,05,17,06,02,9.90
2018,05,17,06,03,9.90
2018,05,17,06,04,9.90
2018,05,17,06,05,9.90
2018,05,17,06,06,9.90
2018,05,17,06,07,9.90
2018,05,17,06,08,9.90
2018,05,17,06,09,9.90
2018,05,17,06,10,9.90
2018,05,17,06,11,9.90
2018,05,17,06,12,9.90
2018,05,17,06,13,9.90
2018,05,17,06,14,9.90
2018,05,17,06,15,9.90
2018,05,17,06,16,9.90
2018,05,17,06,17,9.90
2018,05,17,06,18,9.90
2018,05,17,06,19,9.90
2018,05,17,06,20,9.90
2018,05,17,06,21,9.90
2018,05,17,06,22,9.90
2018,05,17,06,23,9.90
2018,05,17,06,24,9.90
2018,05,17,06,25,9.90
2018,05,17,06,26,10.00
2018,05,17,06,27,10.00
2018,05,17,06,28,10.00
2018,05,17,06,29,10.00
2018,05,17,06,30,10.00
2018,05,17,06,31,10.10
2018,05,17,06,32,10.10
2018,05,17,06,33,10.10
2018,05,17,06,34,10.10
2018,05,17,06,35,10.10
2018,05,17,06,36,10.10
2018,05,17,06,37,10.20
2018,05,17,06,38,10.20
2018,05,17,06,39,10.20
2018,05,17,06,40,10.20
2018,05,17,06,41,10.20
2018,05,17,06,42,10.30
2018,05,17,06,43,10.30
2018,05,17,06,44,10.30
2018,05,17,06,45,10.40
2018,05,17,06,46,10.40
2018,05,17,06,47,10.40
2018,05,17,06,48,10.40
2018,05,17,06,49,10.40
2018,05,17,06,50,10.40
2018,05,17,06,51,10.50
2018,05,17,06,52,10.50
2018,05,17,06,53,10.50
2018,05,17,06,54,10.50
2018,05,17,06,55,10.50
2018,05,17,06,56,10.50
2018,05,17,06,57,10.50
2018,05,17,06,58,10.50
2018,05,17,06,59,10.60
2018,05,17,07,00,10.60
2018,05,17,07,01,10.60
2018,05,17,07,02,10.60
2018,05,17,07,03,10.70
2018,05,17,07,04,10.70
2018,05,17,07,05,10.70
2018,05,17,07,06,10.80
2018,05,17,07,07,10.80
2018,05,17,07,08,10.80
2018,05,17,07,09,10.90
2018,05,17,07,10,10.90
2018,05,17,07,11,11.00
2018,05,17,07,12,11.10
2018,05,17,07,13,11.20
2018,05,17,07,14,11.20
2018,05,17,07,15,11.30
2018,05,17,07,16,11.30
2018,05,17,07,17,11.30
2018,05,17,07,18,11.30
2018,05,17,07,19,11.40
2018,05,17,07,20,11.40
2018,05,17,07,21,11.40
2018,05,17,07,22,11.40
2018,05,17,07,23,11.50
2018,05,17,07,24,11.50
2018,05,17,07,25,11.60
2018,05,17,07,26,11.60
2018,05,17,07,27,11.60
2018,05,17,07,28,11.70
2018,05,17,07,29,11.70
2018,05,17,07,30,11.80
2018,05,17,07,31,11.80
2018,05,17,07,32,11.80
2018,05,17,07,33,11.90
2018,05,17,07,34,11.90
2018,05,17,07,35,12.00
2018,05,17,07,36,12.00
2018,05,17,07,37,12.10
2018,05,17,07,38,12.10
2018,05,17,07,39,12.20
2018,05,17,07,40,12.20
2018,05,17,07,41,12.20
2018,05,17,07,42,12.20
2018,05,17,07,43,12.30
2018,05,17,07,44,12.30
2018,05,17,07,45,12.40
2018,05,17,07,46,12.40
2018,05,17,07,47,12.50
2018,05,17,07,48,12.50
2018,05,17,07,49,12.60
2018,05,17,07,50,12.60
2018,05,17,07,51,12.60
2018,05,17,07,52,12.60
2018,05,17,07,53,12.70
2018,05,17,07,54,12.70
2018,05,17,07,55,12.70
2018,05,17,07,56,12.70
2018,05,17,07,57,12.70
2018,05,17,07,58,12.70
2018,05,17,07,59,12.70
2018,05,17,08,00,12.70
2018,05,17,08,01,12.80
2018,05,17,08,02,12.80
2018,05,17,08,03,12.80
2018,05,17,08,04,12.90
2018,05,17,08,05,12.90
2018,05,17,08,06,12.90
2018,05,17,08,07,12.90
2018,05,17,08,08,12.90
2018,05,17,08,09,12.90
2018,05,17,08,10,12.90
2018,05,17,08,11,12.90
2018,05,17,08,12,12.90
2018,05,17,08,13,12.90
2018,05,17,08,14,12.90
2018,05,17,08,15,12.90
2018,05,17,08,16,12.90
2018,05,17,08,17,12.90
2018,05,17,08,18,12.90
2018,05,17,08,19,12.90
2018,05,17,08,20,12.90
2018,05,17,08,21,12.90
2018,05,17,08,22,12.90
2018,05,17,08,23,12.90
2018,05,17,08,24,12.90
2018,05,17,08,25,12.90
2018,05,17,08,26,12.90
2018,05,17,08,27,12.90
2018,05,17,08,28,12.90
2018,05,17,08,29,12.90
2018,05,17,08,30,12.90
2018,05,17,08,31,12.90
2018,05,17,08,32,12.90
2018,05,17,08,33,12.90
2018,05,17,08,34,13.00
2018,05,17,08,35,13.00
2018,05,17,08,36,13.00
2018,05,17,08,37,13.10
2018,05,17,08,38,13.10
2018,05,17,08,39,13.20
2018,05,17,08,40,13.30
2018,05,17,08,41,13.30
2018,05,17,08,42,13.40
2018,05,17,08,43,13.50
2018,05,17,08,44,13.60
2018,05,17,08,45,13.70
2018,05,17,08,46,13.70
2018,05,17,08,47,13.70
2018,05,17,08,48,13.70
2018,05,17,08,49,13.70
2018,05,17,08,50,13.60
2018,05,17,08,51,13.60
2018,05,17,08,52,13.60
2018,05,17,08,53,13.70
2018,05,17,08,54,13.70
2018,05,17,08,55,13.70
2018,05,17,08,56,13.80
2018,05,17,08,57,13.90
2018,05,17,08,58,13.90
2018,05,17,08,59,14.00
2018,05,17,09,00,14.00
2018,05,17,09,01,14.00
2018,05,17,09,02,14.00
2018,05,17,09,03,14.00
2018,05,17,09,04,14.00
2018,05,17,09,05,14.10
2018,05,17,09,06,14.10
2018,05,17,09,07,14.10
2018,05,17,09,08,14.10
2018,05,17,09,09,14.10
2018,05,17,09,10,14.20
2018,05,17,09,11,14.20
2018,05,17,09,12,14.30
2018,05,17,09,13,14.30
2018,05,17,09,14,14.30
2018,05,17,09,15,14.30
2018,05,17,09,16,14.40
2018,05,17,09,17,14.50
2018,05,17,09,18,14.50
2018,05,17,09,19,14.60
2018,05,17,09,20,14.60
2018,05,17,09,21,14.60
2018,05,17,09,22,14.60
2018,05,17,09,23,14.60
2018,05,17,09,24,14.60
2018,05,17,09,25,14.60
2018,05,17,09,26,14.60
2018,05,17,09,27,14.60
2018,05,17,09,28,14.70
2018,05,17,09,29,14.70
2018,05,17,09,30,14.70
2018,05,17,09,31,14.70
2018,05,17,09,32,14.70
2018,05,17,09,33,14.70
2018,05,17,09,34,14.70
2018,05,17,09,35,14.70
2018,05,17,09,36,14.80
2018,05,17,09,37,14.80
2018,05,17,09,38,14.80
2018,05,17,09,39,14.90
2018,05,17,09,40,15.00
2018,05,17,09,41,15.10
2018,05,17,09,42,15.30
2018,05,17,09,43,15.40
2018,05,17,09,44,15.50
2018,05,17,09,45,15.50
2018,05,17,09,46,15.60
2018,05,17,09,47,15.60
2018,05,17,09,48,15.60
2018,05,17,09,49,15.60
2018,05,17,09,50,15.70
2018,05,17,09,51,15.70
2018,05,17,09,52,15.70
2018,05,17,09,53,15.80
2018,05,17,09,54,15.70
2018,05,17,09,55,15.60
2018,05,17,09,56,15.60
2018,05,17,09,57,15.50
2018,05,17,09,58,15.50
2018,05,17,09,59,15.50
2018,05,17,10,00,15.50
2018,05,17,10,01,15.60
2018,05,17,10,02,15.60
2018,05,17,10,03,15.60
2018,05,17,10,04,15.60
2018,05,17,10,05,15.70
2018,05,17,10,06,15.70
2018,05,17,10,07,15.70
2018,05,17,10,08,15.70
2018,05,17,10,09,15.70
2018,05,17,10,10,15.70
2018,05,17,10,11,15.70
2018,05,17,10,12,15.80
2018,05,17,10,13,15.80
2018,05,17,10,14,15.80
2018,05,17,10,15,15.90
2018,05,17,10,16,16.00
2018,05,17,10,17,16.10
2018,05,17,10,18,16.20
2018,05,17,10,19,16.20
2018,05,17,10,20,16.20
2018,05,17,10,21,16.20
2018,05,17,10,22,16.30
2018,05,17,10,23,16.30
2018,05,17,10,24,16.30
2018,05,17,10,25,16.30
2018,05,17,10,26,16.20
2018,05,17,10,27,16.20
2018,05,17,10,28,16.20
2018,05,17,10,29,16.30
2018,05,17,10,30,16.40
2018,05,17,10,31,16.40
2018,05,17,10,32,16.30
2018,05,17,10,33,16.20
2018,05,17,10,34,16.10
2018,05,17,10,35,16.10
2018,05,17,10,36,16.10
2018,05,17,10,37,16.20
2018,05,17,10,38,16.20
2018,05,17,10,39,16.20
2018,05,17,10,40,16.20
2018,05,17,10,41,16.20
2018,05,17,10,42,16.20
2018,05,17,10,43,16.30
2018,05,17,10,44,16.30
2018,05,17,10,45,16.30
2018,05,17,10,46,16.40
2018,05,17,10,47,16.50
2018,05,17,10,48,16.50
2018,05,17,10,49,16.50
2018,05,17,10,50,16.50
2018,05,17,10,51,16.40
2018,05,17,10,52,16.40
2018,05,17,10,53,16.40
2018,05,17,10,54,16.50
2018,05,17,10,55,16.50
2018,05,17,10,56,16.60
2018,05,17,10,57,16.70
2018,05,17,10,58,16.70
2018,05,17,10,59,16.80
2018,05,17,11,00,16.90
2018,05,17,11,01,16.90
2018,05,17,11,02,16.90
2018,05,17,11,03,16.90
2018,05,17,11,04,16.80
2018,05,17,11,05,16.80
2018,05,17,11,06,16.70
2018,05,17,11,07,16.70
2018,05,17,11,08,16.60
2018,05,17,11,09,16.60
2018,05,17,11,10,16.60
2018,05,17,11,11,16.70
2018,05,17,11,12,16.70
2018,05,17,11,13,16.70
2018,05,17,11,14,16.70
2018,05,17,11,15,16.70
2018,05,17,11,16,16.70
2018,05,17,11,17,16.60
2018,05,17,11,18,16.60
2018,05,17,11,19,16.60
2018,05,17,11,20,16.70
2018,05,17,11,21,16.70
2018,05,17,11,22,16.70
2018,05,17,11,23,16.60
2018,05,17,11,24,16.60
2018,05,17,11,25,16.60
2018,05,17,11,26,16.60
2018,05,17,11,27,16.60
2018,05,17,11,28,16.60
2018,05,17,11,29,16.70
2018,05,17,11,30,16.60
2018,05,17,11,31,16.60
2018,05,17,11,32,16.60
2018,05,17,11,33,16.60
2018,05,17,11,34,16.70
2018,05,17,11,35,16.70
2018,05,17,11,36,16.70
2018,05,17,11,37,16.80
2018,05,17,11,38,16.80
2018,05,17,11,39,16.80
2018,05,17,11,40,16.90
2018,05,17,11,41,16.90
2018,05,17,11,42,16.90
2018,05,17,11,43,16.80
2018,05,17,11,44,16.80
2018,05,17,11,45,16.80
2018,05,17,11,46,16.80
2018,05,17,11,47,16.70
2018,05,17,11,48,16.70
2018,05,17,11,49,16.60
2018,05,17,11,50,16.50
2018,05,17,11,51,16.40
2018,05,17,11,52,16.40
2018,05,17,11,53,16.40
2018,05,17,11,54,16.50
2018,05,17,11,55,16.50
2018,05,17,11,56,16.40
2018,05,17,11,57,16.40
2018,05,17,11,58,16.40
2018,05,17,11,59,16.50
2018,05,17,12,00,16.50
2018,05,17,12,01,16.60
2018,05,17,12,02,16.60
2018,05,17,12,03,16.60
2018,05,17,12,04,16.70
2018,05,17,12,05,16.80
2018,05,17,12,06,16.80
2018,05,17,12,07,16.80
2018,05,17,12,08,16.70
2018,05,17,12,09,16.60
2018,05,17,12,10,16.60
2018,05,17,12,11,16.60
2018,05,17,12,12,16.60
2018,05,17,12,13,16.60
2018,05,17,12,14,16.60
2018,05,17,12,15,16.60
2018,05,17,12,16,16.60
2018,05,17,12,17,16.70
2018,05,17,12,18,16.70
2018,05,17,12,19,16.70
2018,05,17,12,20,16.80
2018,05,17,12,21,16.90
2018,05,17,12,22,17.00
2018,05,17,12,23,17.00
2018,05,17,12,24,17.10
2018,05,17,12,25,17.10
2018,05,17,12,26,17.10
2018,05,17,12,27,17.00
2018,05,17,12,28,17.00
2018,05,17,12,29,16.90
2018,05,17,12,30,17.00
2018,05,17,12,31,17.00
2018,05,17,12,32,17.10
2018,05,17,12,33,17.00
2018,05,17,12,34,17.00
2018,05,17,12,35,17.00
2018,05,17,12,36,17.00
2018,05,17,12,37,17.00
2018,05,17,12,38,17.00
2018,05,17,12,39,17.00
2018,05,17,12,40,17.00
2018,05,17,12,41,17.00
2018,05,17,12,42,17.00
2018,05,17,12,43,17.10
2018,05,17,12,44,17.10
2018,05,17,12,45,17.10
2018,05,17,12,46,17.10
2018,05,17,12,47,17.10
2018,05,17,12,48,17.10
2018,05,17,12,49,17.00
2018,05,17,12,50,17.10
2018,05,17,12,51,17.10
2018,05,17,12,52,17.10
2018,05,17,12,53,17.20
2018,05,17,12,54,17.20
2018,05,17,12,55,17.20
2018,05,17,12,56,17.20
2018,05,17,12,57,17.20
2018,05,17,12,58,17.20
2018,05,17,12,59,17.10
2018,05,17,13,00,17.10
2018,05,17,13,01,17.00
2018,05,17,13,02,17.00
2018,05,17,13,03,16.90
2018,05,17,13,04,16.90
2018,05,17,13,05,16.80
2018,05,17,13,06,16.80
2018,05,17,13,07,16.70
2018,05,17,13,08,16.70
2018,05,17,13,09,16.70
2018,05,17,13,10,16.80
2018,05,17,13,11,16.90
2018,05,17,13,12,17.00
2018,05,17,13,13,17.00
2018,05,17,13,14,17.10
2018,05,17,13,15,17.10
2018,05,17,13,16,17.20
2018,05,17,13,17,17.20
2018,05,17,13,18,17.20
2018,05,17,13,19,17.30
2018,05,17,13,20,17.30
2018,05,17,13,21,17.10
2018,05,17,13,22,17.00
2018,05,17,13,23,16.90
2018,05,17,13,24,16.90
2018,05,17,13,25,16.90
2018,05,17,13,26,17.10
2018,05,17,13,27,17.20
2018,05,17,13,28,17.30
2018,05,17,13,29,17.40
2018,05,17,13,30,17.40
2018,05,17,13,31,17.40
2018,05,17,13,32,17.30
2018,05,17,13,33,17.20
2018,05,17,13,34,17.20
2018,05,17,13,35,17.20
2018,05,17,13,36,17.20
2018,05,17,13,37,17.20
2018,05,17,13,38,17.10
2018,05,17,13,39,17.10
2018,05,17,13,40,17.10
2018,05,17,13,41,17.20
2018,05,17,13,42,17.20
2018,05,17,13,43,17.10
2018,05,17,13,44,17.10
2018,05,17,13,45,17.20
2018,05,17,13,46,17.20
2018,05,17,13,47,17.20
2018,05,17,13,48,17.20
2018,05,17,13,49,17.30
2018,05,17,13,50,17.30
2018,05,17,13,51,17.30
2018,05,17,13,52,17.40
2018,05,17,13,53,17.50
2018,05,17,13,54,17.50
2018,05,17,13,55,17.50
2018,05,17,13,56,17.30
2018,05,17,13,57,17.20
2018,05,17,13,58,17.10
2018,05,17,13,59,17.10
2018,05,17,14,00,17.00
2018,05,17,14,01,16.90
2018,05,17,14,02,16.80
2018,05,17,14,03,16.80
2018,05,17,14,04,16.70
2018,05,17,14,05,16.70
2018,05,17,14,06,16.70
2018,05,17,14,07,16.60
2018,05,17,14,08,16.60
2018,05,17,14,09,16.50
2018,05,17,14,10,16.50
2018,05,17,14,11,16.60
2018,05,17,14,12,16.70
2018,05,17,14,13,16.80
2018,05,17,14,14,16.90
2018,05,17,14,15,17.00
2018,05,17,14,16,17.00
2018,05,17,14,17,17.00
2018,05,17,14,18,17.00
2018,05,17,14,19,17.00
2018,05,17,14,20,17.00
2018,05,17,14,21,17.00
2018,05,17,14,22,17.00
2018,05,17,14,23,17.00
2018,05,17,14,24,17.10
2018,05,17,14,25,17.10
2018,05,17,14,26,17.20
2018,05,17,14,27,17.20
2018,05,17,14,28,17.20
2018,05,17,14,29,17.20
2018,05,17,14,30,17.30
2018,05,17,14,31,17.30
2018,05,17,14,32,17.40
2018,05,17,14,33,17.50
2018,05,17,14,34,17.60
2018,05,17,14,35,17.70
2018,05,17,14,36,17.70
2018,05,17,14,37,17.70
2018,05,17,14,38,17.70
2018,05,17,14,39,17.60
2018,05,17,14,40,17.60
2018,05,17,14,41,17.50
2018,05,17,14,42,17.40
2018,05,17,14,43,17.40
2018,05,17,14,44,17.50
2018,05,17,14,45,17.60
2018,05,17,14,46,17.70
2018,05,17,14,47,17.90
2018,05,17,14,48,18.00
2018,05,17,14,49,18.10
2018,05,17,14,50,18.30
2018,05,17,14,51,18.40
2018,05,17,14,52,18.50
2018,05,17,14,53,18.60
2018,05,17,14,54,18.70
2018,05,17,14,55,18.80
2018,05,17,14,56,18.80
2018,05,17,14,57,18.80
2018,05,17,14,58,18.80
2018,05,17,14,59,18.90
2018,05,17,15,00,18.90
2018,05,17,15,01,19.00
2018,05,17,15,02,19.00
2018,05,17,15,03,19.10
2018,05,17,15,04,19.10
2018,05,17,15,05,19.20
2018,05,17,15,06,19.30
2018,05,17,15,07,19.40
2018,05,17,15,08,19.50
2018,05,17,15,09,19.60
2018,05,17,15,10,19.50
2018,05,17,15,11,19.40
2018,05,17,15,12,19.40
2018,05,17,15,13,19.20
2018,05,17,15,14,19.20
2018,05,17,15,15,19.10
2018,05,17,15,16,19.10
2018,05,17,15,17,19.10
2018,05,17,15,18,19.10
2018,05,17,15,19,19.10
2018,05,17,15,20,19.20
2018,05,17,15,21,19.20
2018,05,17,15,22,19.20
2018,05,17,15,23,19.20
2018,05,17,15,24,19.10
2018,05,17,15,25,19.00
2018,05,17,15,26,19.00
2018,05,17,15,27,18.90
2018,05,17,15,28,18.90
2018,05,17,15,29,18.90
2018,05,17,15,30,18.80
2018,05,17,15,31,18.70
2018,05,17,15,32,18.60
2018,05,17,15,33,18.60
2018,05,17,15,34,18.60
2018,05,17,15,35,18.50
2018,05,17,15,36,18.50
2018,05,17,15,37,18.40
2018,05,17,15,38,18.30
2018,05,17,15,39,18.20
2018,05,17,15,40,18.20
2018,05,17,15,41,18.20
2018,05,17,15,42,18.20
2018,05,17,15,43,18.20
2018,05,17,15,44,18.20
2018,05,17,15,45,18.20
2018,05,17,15,46,18.20
2018,05,17,15,47,18.20
2018,05,17,15,48,18.30
2018,05,17,15,49,18.30
2018,05,17,15,50,18.30
2018,05,17,15,51,18.40
2018,05,17,15,52,18.50
2018,05,17,15,53,18.60
2018,05,17,15,54,18.70
2018,05,17,15,55,18.70
2018,05,17,15,56,18.80
2018,05,17,15,57,18.90
2018,05,17,15,58,18.90
2018,05,17,15,59,18.90
2018,05,17,16,00,19.00
2018,05,17,16,01,19.00
2018,05,17,16,02,19.10
2018,05,17,16,03,19.10
2018,05,17,16,04,19.00
2018,05,17,16,05,19.00
2018,05,17,16,06,18.90
2018,05,17,16,07,18.80
2018,05,17,16,08,18.80
2018,05,17,16,09,18.80
2018,05,17,16,10,18.70
2018,05,17,16,11,18.70
2018,05,17,16,12,18.70
2018,05,17,16,13,18.70
2018,05,17,16,14,18.70
2018,05,17,16,15,18.70
2018,05,17,16,16,18.70
2018,05,17,16,17,18.70
2018,05,17,16,18,18.60
2018,05,17,16,19,18.60
2018,05,17,16,20,18.50
2018,05,17,16,21,18.50
2018,05,17,16,22,18.40
2018,05,17,16,23,18.40
2018,05,17,16,24,18.30
2018,05,17,16,25,18.30
2018,05,17,16,26,18.30
2018,05,17,16,27,18.30
2018,05,17,16,28,18.30
2018,05,17,16,29,18.30
2018,05,17,16,30,18.30
2018,05,17,16,31,18.30
2018,05,17,16,32,18.30
2018,05,17,16,33,18.30
2018,05,17,16,34,18.30
2018,05,17,16,35,18.30
2018,05,17,16,36,18.20
2018,05,17,16,37,18.20
2018,05,17,16,38,18.10
2018,05,17,16,39,18.10
2018,05,17,16,40,18.00
2018,05,17,16,41,18.00
2018,05,17,16,42,17.90
2018,05,17,16,43,17.90
2018,05,17,16,44,17.90
2018,05,17,16,45,17.90
2018,05,17,16,46,17.80
2018,05,17,16,47,17.80
2018,05,17,16,48,17.80
2018,05,17,16,49,17.80
2018,05,17,16,50,17.80
2018,05,17,16,51,17.80
2018,05,17,16,52,17.80
2018,05,17,16,53,17.80
2018,05,17,16,54,17.80
2018,05,17,16,55,17.90
2018,05,17,16,56,17.90
2018,05,17,16,57,17.90
2018,05,17,16,58,17.90
2018,05,17,16,59,17.90
2018,05,17,17,00,17.90
2018,05,17,17,01,17.90
2018,05,17,17,02,17.90
2018,05,17,17,03,18.00
2018,05,17,17,04,18.00
2018,05,17,17,05,18.00
2018,05,17,17,06,18.10
2018,05,17,17,07,18.10
2018,05,17,17,08,18.10
2018,05,17,17,09,18.10
2018,05,17,17,10,18.20
2018,05,17,17,11,18.20
2018,05,17,17,12,18.20
2018,05,17,17,13,18.20
2018,05,17,17,14,18.10
2018,05,17,17,15,18.10
2018,05,17,17,16,18.10
2018,05,17,17,17,18.00
2018,05,17,17,18,18.00
2018,05,17,17,19,18.00
2018,05,17,17,20,18.00
2018,05,17,17,21,17.90
2018,05,17,17,22,17.90
2018,05,17,17,23,17.80
2018,05,17,17,24,17.80